Terug naar catalogus

COSMOS 2564

GLONASS

ActiefNavigatieMEO
NORAD 54377·PAYLOAD·🇷🇺 Russia

Gelanceerd Nov 28, 2022 vanaf Plesetsk Cosmodrome

Loading…

Volgende Passages (komende 24 uur)

TLE

VersSource: CelesTrak SupGP

Epoch: Sep 12, 2026, 23:59 UTC

1 54377C 22161A   26255.99979167  .00000000  00000+0  00000+0 0  2558
2 54377  64.7429 189.7992 0010980 218.7431 146.6673  2.13101999    18

Volg COSMOS 2564 in realtime met AllMySat

Download on the App Store